| time (UTC) | temp F | wind direction | speed MPH | gust MPH | rain 1hr in | rain 24hr in | rain mn in | humidity % | barometer mb |
| 20260902131521 | 79 | 110 | 0.0 | 0.0 | 0.00 | 0.04 | 0.00 | 80 | 1015.0 |
| 20260902130033 | 0 | 0.0 | 0.0 | 0.00 | 0.04 | 0.00 | 1014.8 | ||
| 20260902124530 | 0 | 0.0 | 0.0 | 0.00 | 0.04 | 0.00 | 1014.7 | ||
| 20260902123037 | 0 | 0.0 | 0.0 | 0.00 | 0.04 | 0.00 | 1014.5 | ||
| 20260902121532 | 0 | 0.0 | 0.0 | 0.00 | 0.04 | 0.00 | 1014.2 | ||
| 20260902120031 | 0 | 0.0 | 0.0 | 0.00 | 0.04 | 0.00 | 1014.3 | ||
| 20260902114531 | 0 | 0.0 | 0.0 | 0.00 | 0.04 | 0.00 | 1014.3 | ||
| 20260902113031 | 0 | 0.0 | 0.0 | 0.00 | 0.04 | 0.00 | 1014.2 | ||
| 20260902111538 | 0 | 0.0 | 0.0 | 0.00 | 0.04 | 0.00 | 1013.9 | ||
| 20260902110031 | 0 | 0.0 | 0.0 | 0.00 | 0.04 | 0.00 | 1014.1 | ||
| 20260902104533 | 0 | 0.0 | 0.0 | 0.00 | 0.04 | 0.00 | 1014.0 | ||
| 20260902103033 | 0 | 0.0 | 0.0 | 0.00 | 0.04 | 0.00 | 1014.1 | ||
| 20260902101532 | 0 | 0.0 | 0.0 | 0.00 | 0.04 | 0.00 | 1013.8 | ||
| 20260902100034 | 0 | 0.0 | 0.0 | 0.00 | 0.04 | 0.00 | 1013.7 | ||
| 20260902094531 | 0 | 0.0 | 0.0 | 0.00 | 0.04 | 0.00 | 1013.8 | ||
| 20260902093034 | 0 | 0.0 | 0.0 | 0.00 | 0.04 | 0.00 | 1013.8 | ||
| 20260902091522 | 79 | 162 | 0.0 | 0.0 | 0.00 | 0.04 | 0.00 | 77 | 1013.7 |
| 20260902090028 | 79 | 108 | 0.0 | 0.0 | 0.00 | 0.04 | 0.00 | 78 | 1013.6 |
| 20260902084508 | 79 | 113 | 0.0 | 0.0 | 0.00 | 0.04 | 0.00 | 78 | 1013.6 |
| 20260902083012 | 79 | 108 | 0.0 | 0.0 | 0.00 | 0.04 | 0.00 | 78 | 1013.7 |
| 20260902081519 | 79 | 128 | 0.0 | 0.0 | 0.00 | 0.04 | 0.00 | 78 | 1013.8 |
| 20260902080025 | 79 | 119 | 0.0 | 0.0 | 0.00 | 0.04 | 0.00 | 79 | 1014.0 |
| 20260902074533 | 79 | 108 | 0.0 | 0.0 | 0.00 | 0.04 | 0.00 | 78 | 1013.8 |
| 20260902073009 | 79 | 108 | 0.0 | 0.0 | 0.00 | 0.04 | 0.00 | 79 | 1013.8 |
| 20260902071519 | 79 | 127 | 0.0 | 0.0 | 0.00 | 0.04 | 0.00 | 79 | 1013.9 |
| 20260902070024 | 80 | 108 | 0.0 | 0.0 | 0.00 | 0.04 | 0.00 | 79 | 1013.8 |
| 20260902064530 | 80 | 113 | 0.0 | 0.0 | 0.00 | 0.04 | 0.00 | 79 | 1013.8 |
| 20260902063041 | 80 | 118 | 0.0 | 0.0 | 0.00 | 0.04 | 0.00 | 79 | 1013.8 |
| 20260902061510 | 80 | 116 | 0.0 | 0.0 | 0.00 | 0.04 | 0.00 | 79 | 1013.9 |
| 20260902060016 | 80 | 115 | 0.0 | 0.0 | 0.00 | 0.04 | 0.00 | 80 | 1013.8 |
| 20260902054529 | 80 | 242 | 0.0 | 0.0 | 0.00 | 0.04 | 0.00 | 80 | 1013.7 |
| 20260902053028 | 80 | 203 | 0.0 | 0.0 | 0.00 | 0.04 | 0.00 | 81 | 1013.8 |
| 20260902051532 | 79 | 202 | 0.0 | 0.0 | 0.00 | 0.04 | 0.00 | 81 | 1014.0 |
| 20260902050046 | 79 | 202 | 0.0 | 0.0 | 0.00 | 0.04 | 0.00 | 81 | 1013.9 |
| 20260902044521 | 79 | 203 | 0.0 | 0.0 | 0.00 | 0.04 | 0.04 | 81 | 1014.0 |
| 20260902043031 | 79 | 203 | 0.0 | 0.0 | 0.00 | 0.04 | 0.04 | 82 | 1014.0 |
| 20260902041531 | 79 | 203 | 0.0 | 0.0 | 0.00 | 0.04 | 0.04 | 82 | 1013.9 |
| 20260902040035 | 79 | 203 | 0.0 | 0.0 | 0.00 | 0.04 | 0.04 | 81 | 1014.1 |
| 20260902034517 | 78 | 203 | 0.0 | 0.0 | 0.00 | 0.04 | 0.04 | 81 | 1014.1 |
| 20260902033018 | 78 | 203 | 0.0 | 0.0 | 0.00 | 0.04 | 0.04 | 81 | 1014.1 |
| 20260902031526 | 78 | 203 | 0.0 | 0.0 | 0.00 | 0.04 | 0.04 | 82 | 1013.9 |
| 20260902030031 | 79 | 203 | 0.0 | 0.0 | 0.00 | 0.04 | 0.04 | 82 | 1013.6 |
| 20260902024543 | 79 | 203 | 0.0 | 0.0 | 0.00 | 0.04 | 0.04 | 82 | 1013.3 |
| 20260902023020 | 79 | 203 | 0.0 | 0.0 | 0.00 | 0.04 | 0.04 | 82 | 1013.3 |
| 20260902021523 | 79 | 203 | 0.0 | 0.0 | 0.00 | 0.04 | 0.04 | 82 | 1013.0 |
| 20260902020028 | 79 | 202 | 0.0 | 0.0 | 0.00 | 0.04 | 0.04 | 82 | 1013.1 |
| 20260902014531 | 79 | 202 | 0.0 | 0.0 | 0.00 | 0.04 | 0.04 | 82 | 1012.8 |
| 20260902013038 | 79 | 202 | 0.0 | 0.0 | 0.00 | 0.04 | 0.04 | 82 | 1012.7 |
| 20260902011532 | 80 | 203 | 0.0 | 0.0 | 0.00 | 0.04 | 0.04 | 82 | 1012.5 |
| 20260902010029 | 80 | 203 | 0.0 | 0.0 | 0.01 | 0.04 | 0.04 | 82 | 1012.4 |
| 20260902004530 | 81 | 203 | 0.0 | 0.0 | 0.01 | 0.04 | 0.04 | 81 | 1012.6 |
| 20260902003033 | 81 | 203 | 0.0 | 0.0 | 0.01 | 0.04 | 0.04 | 80 | 1012.8 |
| 20260902001534 | 81 | 264 | 0.0 | 0.0 | 0.01 | 0.06 | 0.04 | 80 | 1012.9 |
| 20260902000025 | 82 | 356 | 0.0 | 0.0 | 0.00 | 0.05 | 0.03 | 79 | 1012.8 |
| 20260901234529 | 82 | 356 | 0.0 | 0.0 | 0.00 | 0.05 | 0.03 | 80 | 1012.9 |
| 20260901233008 | 82 | 298 | 0.0 | 0.0 | 0.00 | 0.05 | 0.03 | 79 | 1012.8 |
| 20260901231522 | 82 | 258 | 0.0 | 0.0 | 0.00 | 0.05 | 0.03 | 80 | 1013.0 |
| 20260901230019 | 82 | 283 | 0.0 | 0.0 | 0.00 | 0.05 | 0.03 | 81 | 1013.1 |
| 20260901224533 | 83 | 337 | 0.0 | 0.0 | 0.00 | 0.05 | 0.03 | 80 | 1013.1 |
| 20260901223004 | 84 | 222 | 0.0 | 0.0 | 0.00 | 0.05 | 0.03 | 80 | 1013.1 |
| 20260901221509 | 84 | 222 | 0.0 | 0.0 | 0.01 | 0.05 | 0.03 | 79 | 1012.8 |
| 20260901220015 | 83 | 250 | 0.0 | 0.0 | 0.01 | 0.05 | 0.03 | 80 | 1013.0 |
| 20260901214524 | 83 | 131 | 0.0 | 0.0 | 0.01 | 0.05 | 0.03 | 80 | 1013.2 |
| 20260901213041 | 83 | 279 | 0.0 | 0.0 | 0.01 | 0.05 | 0.03 | 81 | 1013.4 |
| 20260901211510 | 83 | 279 | 0.0 | 0.0 | 0.00 | 0.04 | 0.02 | 80 | 1013.6 |
| 20260901210013 | 83 | 279 | 0.0 | 0.0 | 0.00 | 0.04 | 0.02 | 80 | 1013.5 |
| 20260901204532 | 83 | 128 | 0.0 | 0.0 | 0.00 | 0.05 | 0.02 | 80 | 1013.4 |
| 20260901203034 | 82 | 172 | 0.0 | 0.0 | 0.00 | 0.77 | 0.02 | 81 | 1013.4 |
| 20260901201527 | 82 | 141 | 0.0 | 0.0 | 0.01 | 1.04 | 0.02 | 81 | 1013.5 |
| 20260901200011 | 82 | 255 | 0.0 | 0.0 | 0.01 | 1.04 | 0.02 | 81 | 1013.8 |
| 20260901194515 | 82 | 212 | 0.0 | 0.0 | 0.01 | 1.04 | 0.02 | 79 | 1014.2 |
| 20260901193030 | 82 | 254 | 0.0 | 0.0 | 0.01 | 1.04 | 0.02 | 79 | 1014.5 |
| 20260901191530 | 82 | 262 | 0.0 | 0.0 | 0.00 | 1.04 | 0.01 | 79 | 1014.5 |
| 20260901190028 | 83 | 345 | 0.0 | 0.0 | 0.00 | 1.04 | 0.01 | 78 | 1014.7 |
| 20260901184527 | 83 | 238 | 0.0 | 0.0 | 0.00 | 1.04 | 0.01 | 78 | 1014.9 |
| 20260901183017 | 83 | 239 | 0.0 | 0.0 | 0.00 | 1.04 | 0.01 | 78 | 1015.1 |
| 20260901181538 | 83 | 289 | 0.0 | 0.0 | 0.00 | 1.04 | 0.01 | 80 | 1015.1 |
| 20260901180031 | 83 | 249 | 0.0 | 0.0 | 0.00 | 1.04 | 0.01 | 81 | 1015.1 |
| 20260901174548 | 83 | 245 | 0.0 | 0.0 | 0.00 | 1.04 | 0.01 | 80 | 1015.2 |
| 20260901173014 | 83 | 235 | 0.0 | 0.0 | 0.00 | 1.04 | 0.01 | 80 | 1015.5 |
| 20260901171524 | 84 | 288 | 0.0 | 0.0 | 0.00 | 1.04 | 0.01 | 79 | 1015.9 |
| 20260901170027 | 85 | 314 | 0.0 | 0.0 | 0.00 | 1.04 | 0.01 | 76 | 1016.2 |
| 20260901164537 | 85 | 41 | 0.0 | 0.0 | 0.00 | 1.04 | 0.01 | 74 | 1016.2 |
| 20260901163033 | 85 | 15 | 0.0 | 0.0 | 0.00 | 1.04 | 0.01 | 75 | 1016.3 |
| 20260901161520 | 86 | 65 | 0.0 | 0.0 | 0.00 | 1.04 | 0.01 | 74 | 1016.2 |
| 20260901160036 | 86 | 236 | 0.0 | 0.0 | 0.00 | 1.04 | 0.01 | 73 | 1016.0 |
| 20260901154533 | 86 | 248 | 0.0 | 0.0 | 0.00 | 1.04 | 0.01 | 74 | 1015.8 |
| 20260901153028 | 85 | 323 | 0.0 | 0.0 | 0.00 | 1.04 | 0.01 | 76 | 1015.8 |
| 20260901151533 | 84 | 358 | 0.0 | 0.0 | 0.00 | 1.04 | 0.01 | 78 | 1015.7 |
| 20260901150025 | 83 | 5 | 0.0 | 0.0 | 0.00 | 1.04 | 0.01 | 80 | 1015.6 |
| 20260901144523 | 82 | 309 | 0.0 | 0.0 | 0.00 | 1.04 | 0.01 | 81 | 1015.6 |
| 20260901143030 | 82 | 250 | 0.0 | 0.0 | 0.00 | 1.04 | 0.01 | 81 | 1015.7 |
| 20260901141509 | 81 | 216 | 0.0 | 0.0 | 0.01 | 1.04 | 0.01 | 81 | 1015.8 |
| 20260901140013 | 80 | 287 | 0.0 | 0.0 | 0.01 | 1.04 | 0.01 | 81 | 1015.6 |
| 20260901134527 | 80 | 268 | 0.0 | 0.0 | 0.01 | 1.04 | 0.01 | 79 | 1015.7 |
| 20260901133027 | 79 | 257 | 0.0 | 0.0 | 0.01 | 1.04 | 0.01 | 74 | 1015.8 |